�������l�o���
Date,Time,MP-1(��Sv/h),MP-2(��Sv/h),MP-3(��Sv/h),MP-4(��Sv/h),MP-5(��Sv/h),MP-6(��Sv/h),MP-7(��Sv/h),MP-8(��Sv/h),����,����(m/s),���J
2018/10/18,00:00,0.784,1.182,0.834,1.489,1.069,0.461,0.810,0.765,�k��,5.6,��
2018/10/18,00:10,0.784,1.187,0.835,1.487,1.067,0.460,0.810,0.765,�k��,6.0,��
2018/10/18,00:20,0.784,1.182,0.832,1.487,1.069,0.461,0.808,0.767,�k�k��,6.5,��
2018/10/18,00:30,0.782,1.181,0.834,1.487,1.068,0.462,0.808,0.766,�k�k��,6.3,��
2018/10/18,00:40,0.784,1.184,0.834,1.487,1.067,0.461,0.808,0.767,�k��,6.0,��
2018/10/18,00:50,0.783,1.181,0.833,1.486,1.067,0.460,0.810,0.764,�k��,5.9,��
2018/10/18,01:00,0.784,1.184,0.833,1.484,1.067,0.460,0.810,0.766,�k�k��,5.8,��
2018/10/18,01:10,0.782,1.184,0.834,1.487,1.068,0.461,0.811,0.767,�k�k��,6.2,��
2018/10/18,01:20,0.783,1.185,0.834,1.487,1.067,0.459,0.809,0.766,�k�k��,7.1,��
2018/10/18,01:30,0.783,1.185,0.833,1.488,1.067,0.461,0.811,0.766,�k�k��,6.7,��
2018/10/18,01:40,0.786,1.186,0.833,1.487,1.069,0.460,0.809,0.766,�k�k��,7.1,��
2018/10/18,01:50,0.784,1.182,0.834,1.488,1.068,0.459,0.810,0.765,�k�k��,7.0,��
2018/10/18,02:00,0.784,1.183,0.835,1.489,1.069,0.460,0.807,0.766,�k��,7.3,��
2018/10/18,02:10,0.782,1.182,0.832,1.487,1.066,0.461,0.808,0.767,�k�k��,7.3,��
2018/10/18,02:20,0.782,1.185,0.832,1.486,1.068,0.460,0.808,0.767,�k�k��,7.4,��
2018/10/18,02:30,0.783,1.183,0.833,1.488,1.067,0.459,0.810,0.765,�k�k��,7.3,��
2018/10/18,02:40,0.782,1.182,0.833,1.488,1.067,0.459,0.808,0.767,�k�k��,7.3,��
2018/10/18,02:50,0.783,1.184,0.834,1.485,1.066,0.459,0.809,0.766,�k�k��,7.5,��
2018/10/18,03:00,0.784,1.181,0.832,1.488,1.068,0.461,0.808,0.768,�k�k��,7.8,��
2018/10/18,03:10,0.784,1.181,0.834,1.487,1.067,0.461,0.809,0.766,�k�k��,6.8,��
2018/10/18,03:20,0.782,1.183,0.833,1.488,1.068,0.459,0.809,0.766,�k�k��,6.5,��
2018/10/18,03:30,0.782,1.184,0.833,1.489,1.065,0.460,0.810,0.765,�k�k��,7.0,��
2018/10/18,03:40,0.783,1.182,0.834,1.487,1.068,0.460,0.809,0.767,�k�k��,7.2,��
2018/10/18,03:50,0.783,1.182,0.832,1.485,1.068,0.459,0.809,0.765,�k�k��,6.9,��
2018/10/18,04:00,0.783,1.180,0.833,1.484,1.067,0.461,0.809,0.767,�k�k��,6.6,��
2018/10/18,04:10,0.782,1.183,0.833,1.490,1.067,0.460,0.809,0.766,�k�k��,6.6,��
2018/10/18,04:20,0.781,1.182,0.833,1.487,1.069,0.461,0.808,0.767,�k��,6.1,��
2018/10/18,04:30,0.783,1.184,0.834,1.487,1.065,0.461,0.807,0.765,�k��,6.3,��
2018/10/18,04:40,0.782,1.182,0.832,1.488,1.066,0.460,0.807,0.767,�k��,5.8,��
2018/10/18,04:50,0.782,1.182,0.833,1.487,1.066,0.461,0.808,0.766,�k�k��,5.4,��
2018/10/18,05:00,0.783,1.181,0.832,1.488,1.067,0.459,0.808,0.765,�k�k��,5.5,��
2018/10/18,05:10,0.780,1.182,0.830,1.487,1.065,0.461,0.808,0.766,�k�k��,6.8,��
2018/10/18,05:20,0.782,1.182,0.831,1.486,1.066,0.461,0.807,0.766,�k�k��,6.6,��
2018/10/18,05:30,0.783,1.184,0.833,1.487,1.067,0.460,0.809,0.766,�k�k��,6.4,��
2018/10/18,05:40,0.784,1.180,0.831,1.489,1.068,0.460,0.808,0.767,�k�k��,6.4,��
2018/10/18,05:50,0.782,1.181,0.832,1.488,1.067,0.460,0.807,0.765,�k�k��,6.8,��
2018/10/18,06:00,0.782,1.181,0.832,1.486,1.068,0.460,0.808,0.766,�k�k��,7.0,��
2018/10/18,06:10,0.782,1.182,0.833,1.487,1.068,0.460,0.809,0.764,�k�k��,6.6,��
2018/10/18,06:20,0.782,1.182,0.832,1.484,1.067,0.461,0.808,0.766,�k�k��,7.0,��
2018/10/18,06:30,0.782,1.181,0.832,1.489,1.067,0.460,0.808,0.766,�k�k��,7.0,��
2018/10/18,06:40,0.780,1.182,0.834,1.487,1.067,0.459,0.809,0.765,�k��,6.9,��
2018/10/18,06:50,0.782,1.183,0.832,1.489,1.064,0.460,0.807,0.766,�k��,7.2,��
2018/10/18,07:00,0.781,1.181,0.832,1.488,1.067,0.461,0.809,0.766,�k�k��,7.2,��
2018/10/18,07:10,0.781,1.182,0.831,1.485,1.067,0.459,0.807,0.765,�k�k��,5.9,��
2018/10/18,07:20,0.781,1.183,0.832,1.488,1.067,0.460,0.807,0.766,�k�k��,6.0,��
2018/10/18,07:30,0.783,1.179,0.831,1.487,1.066,0.462,0.808,0.766,�k�k��,6.1,��
2018/10/18,07:40,0.784,1.184,0.831,1.488,1.065,0.460,0.809,0.765,�k�k��,6.4,��
2018/10/18,07:50,0.782,1.183,0.831,1.485,1.067,0.460,0.808,0.767,�k�k��,5.7,��
2018/10/18,08:00,0.783,1.187,0.831,1.485,1.067,0.461,0.809,0.767,�k�k��,3.8,��
2018/10/18,08:10,0.784,1.184,0.832,1.486,1.069,0.462,0.808,0.768,�k�k��,5.1,��
2018/10/18,08:20,0.783,1.183,0.833,1.489,1.070,0.460,0.808,0.766,�k�k��,4.5,��
2018/10/18,08:30,0.784,1.183,0.834,1.488,1.070,0.461,0.808,0.769,�k�k��,5.2,��
2018/10/18,08:40,0.784,1.183,0.833,1.488,1.070,0.461,0.806,0.767,�k�k��,5.2,��
2018/10/18,08:50,0.785,1.185,0.833,1.488,1.073,0.462,0.807,0.767,�k,5.1,��
2018/10/18,09:00,0.785,1.182,0.833,1.487,1.071,0.461,0.808,0.769,�k�k��,5.2,��
2018/10/18,09:10,0.785,1.181,0.833,1.488,1.071,0.461,0.808,0.769,�k�k��,5.3,��
2018/10/18,09:20,0.784,1.179,0.832,1.487,1.071,0.461,0.807,0.766,�k�k��,7.1,��
2018/10/18,09:30,0.785,1.180,0.832,1.484,1.072,0.460,0.807,0.768,�k,5.4,��
2018/10/18,09:40,0.787,1.181,0.833,1.486,1.069,0.459,0.810,0.766,�k,5.9,��
2018/10/18,09:50,0.785,1.180,0.833,1.487,1.071,0.459,0.809,0.765,�k,6.1,��
2018/10/18,10:00,0.785,1.180,0.834,1.486,1.073,0.459,0.807,0.766,�k�k��,6.5,��
2018/10/18,10:10,0.786,1.177,0.834,1.489,1.073,0.459,0.808,0.767,�k,7.0,��
2018/10/18,10:20,0.786,1.182,0.834,1.489,1.069,0.459,0.809,0.764,�k,6.5,��
2018/10/18,10:30,0.785,1.181,0.833,1.491,1.072,0.459,0.809,0.764,�k�k��,6.7,��
2018/10/18,10:40,0.787,1.181,0.833,1.490,1.072,0.458,0.808,0.765,�k�k��,6.6,��
2018/10/18,10:50,0.784,1.182,0.831,1.488,1.071,0.458,0.808,0.766,�k�k��,6.4,��
2018/10/18,11:00,0.785,1.184,0.832,1.488,1.061,0.457,0.808,0.765,�k�k��,6.3,��
2018/10/18,11:10,0.784,1.183,0.832,1.490,1.062,0.459,0.808,0.766,�k�k��,6.0,��
2018/10/18,11:20,0.786,1.184,0.832,1.490,1.070,0.460,0.811,0.764,�k�k��,6.5,��
2018/10/18,11:30,0.786,1.186,0.832,1.485,1.070,0.459,0.810,0.765,�k�k��,5.8,��
2018/10/18,11:40,0.786,1.186,0.832,1.482,1.072,0.458,0.812,0.764,�k�k��,5.6,��
2018/10/18,11:50,0.786,1.187,0.832,1.490,1.073,0.458,0.809,0.766,�k�k��,5.5,��
2018/10/18,12:00,0.787,1.185,0.820,1.488,1.073,0.461,0.808,0.766,�k�k��,5.4,��
2018/10/18,12:10,0.786,1.187,0.826,1.490,1.076,0.459,0.809,0.766,�k�k��,5.2,��
2018/10/18,12:20,0.786,1.184,0.834,1.492,1.074,0.459,0.809,0.765,�k�k��,5.6,��
2018/10/18,12:30,0.788,1.187,0.835,1.492,1.073,0.462,0.807,0.764,�k�k��,4.6,��
2018/10/18,12:40,0.785,1.188,0.833,1.489,1.074,0.461,0.807,0.765,�k�k��,4.4,��
2018/10/18,12:50,0.786,1.189,0.832,1.490,1.075,0.460,0.811,0.764,�k�k��,3.5,��
2018/10/18,13:00,0.785,1.183,0.834,1.490,1.074,0.462,0.812,0.765,�k�k��,3.9,��
2018/10/18,13:10,0.787,1.185,0.834,1.491,1.074,0.460,0.810,0.767,�k�k��,4.9,��
2018/10/18,13:20,0.785,1.184,0.834,1.492,1.073,0.459,0.811,0.766,�k�k��,4.5,��
2018/10/18,13:30,0.787,1.187,0.832,1.489,1.073,0.458,0.810,0.764,�k�k��,4.4,��
2018/10/18,13:40,0.784,1.186,0.832,1.493,1.075,0.460,0.808,0.764,�k�k��,4.6,��
2018/10/18,13:50,0.787,1.185,0.833,1.493,1.076,0.460,0.809,0.766,�k�k��,4.4,��
2018/10/18,14:00,0.787,1.184,0.834,1.491,1.075,0.460,0.809,0.766,�k��,3.7,��
2018/10/18,14:10,0.786,1.187,0.834,1.491,1.078,0.458,0.810,0.766,�k��,4.0,��
2018/10/18,14:20,0.787,1.185,0.833,1.490,1.075,0.460,0.809,0.765,�k�k��,4.1,��
2018/10/18,14:30,0.787,1.184,0.834,1.492,1.077,0.460,0.810,0.766,�k��,3.8,��
2018/10/18,14:40,0.787,1.185,0.835,1.494,1.077,0.460,0.810,0.765,�k�k��,4.5,��
2018/10/18,14:50,0.787,1.188,0.834,1.493,1.076,0.459,0.810,0.766,�k�k��,4.3,��
2018/10/18,15:00,0.789,1.185,0.835,1.493,1.072,0.461,0.809,0.765,�k�k��,4.1,��
2018/10/18,15:10,0.788,1.188,0.837,1.492,1.077,0.460,0.810,0.765,�k�k��,4.3,��
2018/10/18,15:20,0.788,1.188,0.835,1.494,1.075,0.461,0.809,0.766,�k,5.0,��
2018/10/18,15:30,0.789,1.187,0.833,1.492,1.077,0.461,0.809,0.765,�k�k��,3.3,��
2018/10/18,15:40,0.789,1.190,0.835,1.491,1.077,0.462,0.810,0.764,�k�k��,4.2,��
2018/10/18,15:50,0.786,1.190,0.833,1.491,1.076,0.461,0.807,0.767,�k�k��,3.9,��
2018/10/18,16:00,0.787,1.191,0.832,1.492,1.077,0.462,0.807,0.766,�k�k��,2.3,��
2018/10/18,16:10,0.788,1.192,0.832,1.491,1.074,0.461,0.808,0.767,�k,2.9,��
2018/10/18,16:20,0.787,1.195,0.835,1.492,1.075,0.462,0.809,0.766,�k,2.5,��
2018/10/18,16:30,0.788,1.195,0.837,1.492,1.076,0.463,0.807,0.767,�k,2.6,��
2018/10/18,16:40,0.790,1.196,0.838,1.492,1.078,0.462,0.810,0.769,�k,2.0,��
2018/10/18,16:50,0.789,1.193,0.837,1.493,1.079,0.463,0.810,0.767,�k,2.6,��
2018/10/18,17:00,0.789,1.195,0.836,1.492,1.077,0.464,0.810,0.767,�k,2.3,��
2018/10/18,17:10,0.787,1.196,0.835,1.494,1.079,0.462,0.809,0.768,�k,2.9,��
2018/10/18,17:20,0.789,1.194,0.836,1.492,1.080,0.461,0.809,0.767,�k�k��,2.5,��
2018/10/18,17:30,0.791,1.197,0.837,1.492,1.078,0.462,0.811,0.769,�k�k��,2.0,��
2018/10/18,17:40,0.790,1.194,0.836,1.492,1.076,0.460,0.810,0.767,�k�k��,2.6,��
2018/10/18,17:50,0.791,1.197,0.837,1.491,1.078,0.460,0.810,0.765,�k�k��,2.6,��
2018/10/18,18:00,0.787,1.194,0.836,1.494,1.078,0.461,0.809,0.769,�k��,2.8,��
2018/10/18,18:10,0.787,1.192,0.836,1.493,1.080,0.461,0.810,0.767,�k��,2.8,��
2018/10/18,18:20,0.789,1.192,0.836,1.492,1.078,0.462,0.809,0.768,�k��,3.3,��
2018/10/18,18:30,0.790,1.193,0.837,1.493,1.078,0.462,0.810,0.767,�k��,3.8,��
2018/10/18,18:40,0.789,1.193,0.837,1.492,1.076,0.461,0.811,0.767,�k��,3.6,��
2018/10/18,18:50,0.789,1.196,0.836,1.489,1.077,0.461,0.810,0.767,�k��,3.7,��
2018/10/18,19:00,0.788,1.193,0.837,1.489,1.076,0.462,0.808,0.765,�k��,4.0,��
2018/10/18,19:10,0.789,1.196,0.836,1.494,1.076,0.459,0.809,0.767,�k��,3.8,��
2018/10/18,19:20,0.790,1.194,0.837,1.493,1.074,0.461,0.810,0.768,�k��,3.8,��
2018/10/18,19:30,0.788,1.194,0.836,1.492,1.078,0.461,0.810,0.767,�k��,3.9,��
2018/10/18,19:40,0.787,1.192,0.837,1.492,1.077,0.461,0.809,0.766,�k��,3.9,��
2018/10/18,19:50,0.789,1.194,0.837,1.493,1.078,0.460,0.810,0.767,�k��,4.3,��
2018/10/18,20:00,0.789,1.194,0.836,1.493,1.078,0.460,0.808,0.766,�k��,4.1,��
2018/10/18,20:10,0.789,1.193,0.836,1.491,1.078,0.461,0.810,0.767,�k��,4.5,��
2018/10/18,20:20,0.790,1.195,0.836,1.493,1.079,0.460,0.810,0.767,�k��,4.5,��
2018/10/18,20:30,0.788,1.193,0.838,1.493,1.076,0.460,0.808,0.767,�k��,4.3,��
2018/10/18,20:40,0.789,1.193,0.835,1.495,1.077,0.460,0.809,0.767,�k��,5.0,��
2018/10/18,20:50,0.788,1.196,0.837,1.494,1.078,0.461,0.808,0.767,�k��,5.1,��
2018/10/18,21:00,0.788,1.193,0.836,1.493,1.077,0.461,0.810,0.768,�k��,5.3,��
2018/10/18,21:10,0.789,1.194,0.836,1.494,1.077,0.461,0.810,0.767,�k��,5.4,��
2018/10/18,21:20,0.788,1.190,0.835,1.493,1.075,0.460,0.812,0.768,�k��,5.9,��
2018/10/18,21:30,0.788,1.190,0.838,1.491,1.075,0.460,0.809,0.767,�k��,5.3,��
2018/10/18,21:40,0.787,1.195,0.836,1.493,1.076,0.462,0.808,0.766,�k��,5.1,��
2018/10/18,21:50,0.789,1.194,0.835,1.496,1.076,0.462,0.810,0.768,�k��,5.3,��
2018/10/18,22:00,0.789,1.191,0.836,1.492,1.076,0.460,0.811,0.767,�k��,5.2,��
2018/10/18,22:10,0.789,1.193,0.837,1.493,1.077,0.461,0.810,0.767,�k��,5.5,��
2018/10/18,22:20,0.787,1.193,0.837,1.494,1.075,0.461,0.810,0.767,�k��,5.2,��
2018/10/18,22:30,0.787,1.192,0.835,1.494,1.076,0.461,0.810,0.767,�k��,5.6,��
2018/10/18,22:40,0.789,1.192,0.837,1.491,1.075,0.461,0.809,0.767,�k��,5.7,��
2018/10/18,22:50,0.788,1.192,0.836,1.492,1.076,0.460,0.810,0.768,�k��,5.7,��
2018/10/18,23:00,0.787,1.190,0.838,1.493,1.076,0.458,0.810,0.767,�k��,5.6,��
2018/10/18,23:10,0.787,1.194,0.837,1.495,1.077,0.461,0.811,0.767,�k��,6.1,��
2018/10/18,23:20,0.790,1.193,0.837,1.493,1.078,0.460,0.810,0.768,�k�k��,6.5,��
2018/10/18,23:30,0.788,1.192,0.837,1.492,1.078,0.462,0.810,0.768,�k�k��,6.5,��
2018/10/18,23:40,0.788,1.191,0.836,1.493,1.077,0.460,0.808,0.768,�k�k��,6.6,��
2018/10/18,23:50,0.788,1.192,0.835,1.489,1.076,0.460,0.811,0.767,�k�k��,6.5,��
